Other Public Products
Issued by NWS Grand Forks, ND

Home | Current Version | Previous Version | Graphics & Text | Print | Product List | Glossary On
Versions: 1 2 3 4 5 6 7 8 9 10 11 12 13 14 15 16 17 18 19 20 21 22 23 24 25 26 27 28 29 30 31 32 33 34 35 36 37 38 39 40 41 42 43 44 45 46 47 48 49 50
000
FPUS83 KFGF 291931
OPUFGF
PRAIRIE TO PINES WEATHER ROUNDUP
NATIONAL WEATHER SERVICE EASTERN NORTH DAKOTA/GRAND FORKS ND
200 PM CDT SAT AUG 29 2015

 **SATELLITE DATA USED TO AUGMENT SKY COVER AT AUTOMATED STATIONS**
 *****  WEATHER ACROSS EASTERN NORTH DAKOTA  *****

CITY           SKY/WX    TMP DP  RH WIND       PRES   REMARKS
GRAND FORKS    CLOUDY    76  68  76 S8        29.90S
GRAND FORKS AF PTSUNNY   78  69  73 S9        29.89F
GRAND CITY NWS   N/A     73 N/A N/A S6          N/A
BUXTON         NOT AVBL
DEVILS LAKE    MOSUNNY   79  64  61 S8        29.87F
FARGO          MOSUNNY   81  66  60 S15       29.93F
WAHPETON ARPT  CLEAR     79  63  57 S13G18    29.95F
$$

 *****  WEATHER ACROSS CENTRAL AND WESTERN NORTH DAKOTA  *****

CITY           SKY/WX    TMP DP  RH WIND       PRES   REMARKS
JAMESTOWN      MOSUNNY   80  68  66 S7        29.92F
BISMARCK       CLOUDY    87  61  41 VRB3      29.91F HAZE
MINOT          PTSUNNY   89  50  26 S12       29.85F HAZE
MINOT AFB      PTSUNNY   88  53  30 SW9       29.84F
GARRISON         N/A     87  56  34 S8        29.88F
WILLISTON      MOSUNNY   90  48  23 VRB6      29.86F HAZE
DICKINSON      SUNNY     96  43  16 S13       29.90F HAZE    HX  92
HETTINGER      SUNNY     94  47  20 S12       29.96F HX  90
$$

 *****  OTHER OBSERVATIONS NORTHEAST NORTH DAKOTA  *****

CITY           SKY/WX    TMP DP  RH WIND       PRES   REMARKS
WALHALLA       FAIR      75  75 100 MISG      29.84F
LANGDON        FAIR      82  66  57 S12       29.88F
CAVALIER       FAIR      75  68  78 S7        29.88S
GRAFTON        FAIR      75  72  88 SE8       29.90S
CANDO          FAIR      81  63  54 SW6       29.89R
FORT TOTTEN      N/A     81  66  60 S5        29.95S
ROLLA            N/A     82  55  39 SW12      29.88F
RUGBY          FAIR      82  55  39 S6        29.87F HAZE
 ***** THE ABOVE OBSERVATIONS ARE NON NWS ARE NOT QUALITY
        CONTROLLED AND MAY MIS-REPORT RAIN FOR SNOW...
$$

 *****  OTHER OBSERVATIONS SOUTHEAST NORTH DAKOTA *****

CITY           SKY/WX    TMP DP  RH WIND       PRES   REMARKS
COOPERSTOWN    NOT AVBL
VALLEY CITY    FAIR      77  72  83 SW9       29.93F
OAKES            N/A     79  75  89 SW12      29.94F
GWINNER        FAIR      81  68  65 SW13      29.94F
SHEYENNE NWR     N/A     82  67  60 SW12      29.95S
BUFFALO        NOT AVBL
WYNDMERE         N/A     82  70  65 S9          N/A
 ***** THE ABOVE OBSERVATIONS ARE NON NWS ARE NOT QUALITY
       CONTROLLED AND MAY MIS-REPORT RAIN FOR SNOW...
$$

  *****  WEATHER ACROSS NORTHERN MINNESOTA  *****

CITY           SKY/WX    TMP DP  RH WIND       PRES   REMARKS
FLAG ISLAND    CLOUDY    68  66  94 S7        29.92F
WARROAD        CLOUDY    70  66  88 SE6       29.94S
ROSEAU         CLOUDY    72  66  83 SE8       29.93S
HALLOCK        CLOUDY    73  70  88 SE10      29.89S
THF RVR FALLS  PTSUNNY  N/A N/A N/A S9        29.92F
HALSTAD        NOT AVBL
FOSSTON        FAIR      77  64  65 S12       29.96S
BAUDETTE       CLOUDY    70  65  84 S8        29.96S
WASKISH        CLOUDY    73  66  78 SE5       29.96F
CROOKSTON      PTSUNNY   77  68  73 S10G17    29.91F
$$
  *****  WEATHER ACROSS CENTRAL AND WEST MINNESOTA  *****

CITY           SKY/WX    TMP DP  RH WIND       PRES   REMARKS
BEMIDJI        CLOUDY    75  66  74 S8        29.97F
PARK RAPIDS    CLOUDY    78  64  61 S12       30.00S
WADENA         PTSUNNY   75  63  64 S12       30.00S
DETROIT LAKES  MOSUNNY   77  64  65 S13       29.98F
MOORHEAD       SUNNY     79  66  65 S13       29.94F
FERGUS FALLS   MOSUNNY   77  64  65 S13       29.96F
ELBOW LAKE     FAIR      75  64  68 S13       29.99S
MORRIS MN      PTSUNNY   75  63  64 S13       29.99F
STAPLES        MOSUNNY   73  61  64 S8        30.01S
WHEATON        MOSUNNY   75  66  73 S9        29.98F
$$
  *****  WEATHER ELSEWHERE ACROSS MINNESOTA  *****

CITY           SKY/WX    TMP DP  RH WIND       PRES   REMARKS
DULUTH         CLOUDY    72  60  66 VRB6      30.03S
INTRNTL FALLS  CLOUDY    72  66  81 S5        29.97F
ELY            CLOUDY    70  63  78 CALM      30.01F
CLOQUET        CLOUDY    72  57  60 S6        30.03S
BRAINERD       MOSUNNY   73  60  63 S10       30.02F
HIBBING        CLOUDY    72  61  68 CALM      30.01F
ALEXANDRIA     CLOUDY    73  60  63 S13       30.04S
SAINT CLOUD    SUNNY     72  60  66 S10       30.03F
MINNEAPOLIS    PTSUNNY   70  61  73 VRB6      30.05F
$$

  *****  WEATHER ACROSS SOUTH DAKOTA  *****

CITY           SKY/WX    TMP DP  RH WIND       PRES   REMARKS
SIOUX FALLS    PTSUNNY   69  61  75 SW7       30.06F
BROOKINGS      PTSUNNY   75  63  64 S10G16    30.04F
WATERTOWN      MOSUNNY   76  65  68 S13       30.01F
HURON          SUNNY     81  68  64 S14       29.97F
SISSETON         N/A     81  64  56 SW13      29.95F
ABERDEEN       SUNNY     80  68  66 S12       29.95F
MITCHELL       MOSUNNY   78  68  71 S13       30.01F
PIERRE         SUNNY     89  65  44 SE10      29.94F HX  91
MOBRIDGE       SUNNY     87  65  47 SE10      29.91F
RAPID CITY     SUNNY     92  54  27 S14       30.01F HX  90
$$

  *****  SOME WEATHER IN NEARBY STATES *****

CITY           SKY/WX    TMP DP  RH WIND       PRES   REMARKS
GLASGOW MT     HAZE      85  45  24 SE7       29.84F VSB 1
GREAT FALLS MT CLOUDY    86  39  19 S17G24    29.83F HAZE
CHEYENNE WY    SUNNY     83  39  21 S13G21    30.26F
SCOTTSBLUFF NE SUNNY     89  52  28 E8        30.11F
OMAHA NE       CLOUDY    68  61  78 VRB5      30.07S
DES MOINES IA  CLOUDY    71  63  75 N7        30.03S
DAVENPORT IA   CLOUDY    73  67  81 N3        30.00S
CHICAGO IL     CLOUDY    69  66  90 SW6       30.01F FOG
EAU CLAIRE WI  CLOUDY    66  59  78 CALM      30.07S
LA CROSSE WI   CLOUDY    71  62  73 NW3       30.04F
$$

  *****  SOME NATIONAL WEATHER *****

CITY           SKY/WX    TMP DP  RH WIND       PRES   REMARKS
LA GUARDIA NY  PTSUNNY   85  53  33 SW6       30.13F
RALEIGH NC     CLOUDY    85  57  38 SE7       30.19F
ATLANTA GA     PTSUNNY   80  67  64 E12       30.17F
NEW ORLEANS LA PTSUNNY   89  65  44 SE5       30.04F HX  91
OKLAHOMA CITY  MOSUNNY   90  67  46 N9        30.00F HX  93
ALBUQUERQUE NM MOSUNNY   86  48  26 VRB7      30.27F
SALT LAKE CITY PTSUNNY   93  40  15 S22G28    30.04F
LOS ANGELES CA SUNNY     82  67  60 W12       29.91S
BOISE ID       CLOUDY    87  40  19 SE7       29.86F
SEATTLE WA     CLOUDY    69  51  52 S24G39    29.64R
$$

*** WEATHER ACROSS MANITOBA...SASKATCHEWAN AND ONTARIO ***
                ***ONTARIO***

CITY           SKY/WX    TMP DP  RH WIND       PRES   REMARKS
GERALDTON      CLOUDY    68  64  88 NW3       29.96S FOG
THUNDER BAY    CLOUDY    72  64  78 SW3       29.97F
SIOUX LOOKOUT  MOSUNNY   77  63  61 VRB2      29.95F
TORONTO        CLOUDY    75  63  64 SE6       30.12F
BIG TROUT LK   SUNNY     81  59  47 W12       29.76S
PICKLE LAKE    MOSUNNY   81  55  41 W3        29.90F
DRYDEN         SUNNY     77  59  53 SW8       29.95F
KENORA         PTSUNNY   72  64  78 S12       29.95S
$$
                *** MANITOBA***

CITY           SKY/WX    TMP DP  RH WIND       PRES   REMARKS
BRANDON        PTSUNNY   79  66  65 SW9       29.82F
DAUPHIN        SUNNY     82  63  51 SW15G26   29.74R
ISLAND LAKE    CLOUDY    79  57  47 SW9       29.75F
PILOT MOUND      N/A     79  64  61 S12         N/A
THE PAS        MOSUNNY   77  59  53 S8        29.58F
THOMPSON       LGT RAIN  70  61  73 NE5       29.64F
WINNIPEG       CLOUDY    73  68  83 S13       29.87S
LYNN LAKE      PTSUNNY   70  52  52 MISG      29.65S
CHURCHILL      CLOUDY    50  48  93 NE14      29.72S FOG
GILLAM         CLOUDY    68  59  73 W5        29.71R
$$
                ***SASKATCHEWAN***

CITY           SKY/WX    TMP DP  RH WIND       PRES   REMARKS
ESTEVAN        CLOUDY    82  48  30 W9        29.84  SMOKE
KINDERSLEY     PTSUNNY   81  46  30 S6        29.78S
LLOYDMINSTER   MOSUNNY   75  48  38 W3        29.75S
PRINCE ALBERT  CLOUDY    77  61  57 W10       29.65  SMOKE
REGINA         PTSUNNY   82  50  32 W15G24    29.80S



USA.gov is the U.S. government's official web portal to all federal, state and local government web resources and services.